THOR ABLESTAR DEB, 537

Orbit data source: Space-Track

THOR ABLESTAR DEB, 537 is space debris in LEO originally from a launch on Thu, 29 Jun 1961 UTC launched from the Air Force Eastern Test Range (AFETR). Debris objects in space refer to the collection of defunct objects orbiting the Earth. Examples of debris include non-operational satellites, rocket bodies, and fragments generated from explosions, collisions, or faulty payload assembly.

Loading next visibility...
Identifier
537, 1961-015FW
Orbit
LEO
Country
Flag of USUS
Related business
Manufacturer
Unknown
Mission
Spacecraft
Bus & Motor
Unknown
Mass
Unknown
Launch date (UTC)
1961-06-29 (64 years ago)
Launch vehicle
Unknown
Launch site
Air Force Eastern Test Range (AFETR)
Object type
Payload
Rocket body
Debris
Shape & HBR
Unknown
Radar Cross Section
Small (<0.1 m²)

Expand to show TLE details & history
Last TLE update: 19 hours ago

TLE from 19 hours ago
0 THOR ABLESTAR DEB
1 00537U 61015FW  25260.72720685  .00000255  00000-0  36289-3 0  9993
2 00537  67.2279  24.3477 0170463 137.1053 340.5676 13.64815668978078
Epoch: 2025-09-17T17:27Z
TLE epoch observation values (Epoch: 2025-09-17T17:27:10.671Z)
Latitude
55.3509°
Longitude
-91.51765°
Altitude
907.946 km
Speed
7.463 km/s
True Right ascension
11h 08m 42s
True Declination
55° 11' 35"
Sunlit
Object was in daylight at epoch
Visualization orbit readout
Latitude
Unknown
Longitude
Unknown
Altitude
Unknown
Speed
Unknown
Apparent Right ascension
Unknown
Apparent Declination
Unknown
Sunlit
N/A
Visualization observer readout
Local Sidereal Time
05:13:03
Azimuth
Unknown
Elevation
Unknown
Doppler factor
Unknown
Orbital elements
Apogee altitude
1,142.66 km
Perigee altitude
890.554 km
Semi-major axis
7,394.744 km
Eccentricity
0.01705
Inclination
67.2279°
RAAN
24.3477°
Arg. of periapsis
137.1053°
True anomaly
339.90443°
Mean anomaly
340.5676°
Eccentric anomaly
340.23736°
Mean motion
3.41317 °/min
Orbital period
105.47 mins
BSTAR
0.00036289
Loading maneuver chart data...
Computing Atmospheric mass density...

Documentation

Showing up to 5 results
|